Simultaneous Nadir Overpasses (SNOs) Predictions

Prediction of SNOs between GOES-17 and METOP-A Satellite Orbit:

Table of predicted SNOs for the next 14.0 days since TLE Epoch: 4/17/2021
Index Date Time (GOES-17) GOES-17 Lat,Lon METOP-A Lat,Lon Distance(km) Time Diff (sec)
1 04/17/2021 05:16:06 -0.03,-137.19 0.20,-136.04 130.30 80
2 04/18/2021 17:37:37 0.03,-137.19 0.79,-140.65 393.90 80
3 04/19/2021 17:14:17 0.03,-137.18 -0.29,-135.66 172.19 80
4 04/21/2021 05:35:57 -0.03,-137.15 -0.72,-140.30 358.48 80
5 04/22/2021 05:12:37 -0.02,-137.14 0.35,-135.32 207.28 80
6 04/23/2021 17:31:28 0.02,-137.13 0.63,-139.92 318.00 80
7 04/24/2021 17:13:27 0.02,-137.11 -0.44,-134.94 247.51 80
8 04/26/2021 05:32:28 -0.02,-137.08 -0.56,-139.58 284.10 80
9 04/27/2021 05:09:07 -0.02,-137.06 0.51,-134.59 280.93 80
10 04/28/2021 17:27:59 0.02,-137.04 0.47,-139.20 245.78 80
11 04/29/2021 17:09:58 0.02,-137.01 -0.60,-134.21 318.67 80
